This demonstration page uses our WeatherBlox Daily Observations layout. Learn more.

Left ArrowRight Arrow

Hourly Observations for August 12, 2020

Temp ( °F °C ) Dew Point ( °F °C ) Humidity (%) Winds ( mph kmh ) Pressure ( in mb ) Visibility ( mi km ) Precip ( " mm )
12:53 am 00:53 Clear 77 25 66 18.9 69 69 SSW 5 7 29.91 1013 10 16 0.00 0.00
1:53 am 01:53 Clear 75 23.9 65 18.3 71 71 S 5 7 29.90 1012 10 16 0.00 0.00
2:53 am 02:53 Clear 71 21.7 66 18.9 84 84 SSE 3 6 29.88 1012 10 16 0.00 0.00
3:53 am 03:53 Clear 72 22.2 66 18.9 82 82 S 5 7 29.89 1012 10 16 0.00 0.00
4:53 am 04:53 Clear 72 22.2 65 18.3 79 79 S 5 7 29.89 1012 10 16 0.00 0.00
5:53 am 05:53 Clear 72 22.2 65 18.3 79 79 SSE 8 13 29.90 1013 10 16 0.00 0.00
6:53 am 06:53 Sunny 70 21.1 65 18.3 84 84 SSE 6 9 29.92 1013 8 13 0.00 0.00
7:53 am 07:53 undefined 71 21.7 66 18.9 84 84 SSE 13 20 29.92 1013 10 16 0.00 0.00
8:53 am 08:53 Sunny 74 23.3 68 20 82 82 S 10 17 29.91 1013 10 16 0.00 0.00
9:53 am 09:53 Sunny 77 25 68 20 74 74 SE 12 19 29.91 1013 10 16 0.00 0.00
10:53 am 10:53 Sunny 81 27.2 66 18.9 61 61 SSE 12 19 29.90 1013 10 16 0.00 0.00
11:53 am 11:53 Sunny 84 28.9 65 18.3 53 53 S 8 13 29.93 1014 10 16 0.00 0.00
12:53 pm 12:53 Sunny 85 29.4 64 17.8 50 50 SSE 8 13 29.91 1013 10 16 0.00 0.00
1:53 pm 13:53 Sunny 89 31.7 62 16.7 41 41 S 8 13 29.90 1013 10 16 0.00 0.00
2:53 pm 14:53 Sunny 90 32.2 63 17.2 41 41 S 12 19 29.90 1013 10 16 0.00 0.00
3:53 pm 15:53 Sunny 89 31.7 65 18.3 45 45 SE 8 13 29.90 1012 10 16 0.00 0.00
4:53 pm 16:53 Sunny 89 31.7 65 18.3 45 45 S 13 20 29.89 1012 10 16 0.00 0.00
5:53 pm 17:53 Sunny 88 31.1 64 17.8 45 45 S 15 24 29.90 1012 10 16 0.00 0.00
6:53 pm 18:53 Sunny 86 30 64 17.8 48 48 SSE 13 20 29.89 1012 10 16 0.00 0.00
7:53 pm 19:53 Sunny 83 28.3 69 20.6 63 63 SSE 13 20 29.90 1012 10 16 0.00 0.00
8:53 pm 20:53 Clear 79 26.1 69 20.6 72 72 SSE 12 19 29.90 1013 10 16 0.00 0.00
9:53 pm 21:53 Clear 76 24.4 68 20 77 77 SSE 10 17 29.93 1014 10 16 0.00 0.00
10:53 pm 22:53 Clear 74 23.3 68 20 82 82 SSE 10 17 29.93 1014 10 16 0.00 0.00
11:53 pm 23:53 Clear 73 22.8 68 20 84 84 SSE 10 17 29.93 1013 10 16 0.00 0.00

Powered by AerisWeather